ECMWFFLT1_250_spd_057.txt.gz
Wind_Speed
29 28 26 23 21 21 27 33 37 37 33 28 25 24 24 23 23 23 22 22 20 19 18 19 21 21 20 18 17 15 13 13 13 13 12 14 16 16 15 14 14 16 19 21 22 22 23 24 24 25 25 26 28 29 29 27 27 27 26 26 26 27 28
28 27 25 22 20 19 23 29 30 28 26 24 24 23 23 23 21 20 20 19 18 18 18 19 21 21 20 18 17 15 15 14 14 14 13 13 15 16 16 16 15 17 20 22 23 24 25 26 26 26 26 27 28 29 29 28 28 27 26 26 26 27 28
30 28 26 24 23 21 20 25 25 22 23 24 24 24 23 21 18 17 17 16 16 16 17 19 21 21 20 19 18 16 16 16 16 16 15 13 14 16 19 19 17 18 20 22 24 26 26 26 26 26 26 27 28 29 29 29 29 28 28 27 27 28 29
31 26 24 26 28 27 25 28 29 25 25 25 24 23 21 20 18 18 17 16 16 15 15 17 19 20 20 20 20 18 18 18 18 18 18 16 16 18 20 20 20 19 21 23 25 27 27 26 26 26 26 26 28 30 30 30 30 30 29 29 29 29 30
33 28 26 29 30 30 29 32 33 29 27 26 25 23 21 20 19 18 18 17 17 16 16 17 19 21 21 22 21 20 19 20 20 21 21 21 19 20 20 21 22 22 22 24 26 27 27 27 27 27 26 27 28 29 30 31 31 31 31 31 32 32 33
37 33 31 32 31 30 31 35 35 32 29 26 24 23 22 22 20 18 18 18 18 18 18 18 19 21 22 22 22 21 21 22 22 23 24 24 23 22 21 22 23 22 22 24 26 29 29 29 30 29 28 28 28 29 30 31 31 32 33 33 33 35 36
40 36 34 33 31 31 32 34 34 31 27 25 25 25 24 23 22 21 20 19 19 19 18 18 19 21 22 22 21 21 21 22 23 25 26 26 25 23 22 23 23 23 24 24 26 29 30 30 31 30 29 29 29 30 31 31 32 32 33 34 34 35 36
40 37 35 33 33 35 35 34 32 28 24 24 27 26 26 26 25 23 22 20 19 19 19 19 19 19 20 20 19 20 21 24 25 27 28 27 26 23 23 24 24 24 25 26 27 30 30 30 31 31 31 31 31 31 31 32 32 32 33 33 34 35 36
38 36 36 35 35 37 36 35 34 29 25 26 28 27 27 27 26 24 22 21 21 21 21 21 20 20 20 19 20 22 24 26 27 29 29 28 26 24 23 24 24 26 28 27 28 30 31 32 33 32 31 31 32 33 34 34 34 33 34 34 34 35 36
38 35 36 37 37 39 39 40 39 36 33 31 31 30 28 26 26 25 24 23 23 24 24 23 22 22 23 24 25 26 27 27 29 30 29 27 26 25 24 25 27 29 29 28 28 31 33 33 34 33 32 32 33 34 36 36 34 34 34 35 36 37 38
38 32 32 36 39 40 41 43 42 40 37 34 34 34 30 27 26 26 25 25 25 26 26 26 26 27 28 29 30 30 28 27 29 31 30 29 28 27 27 30 33 32 31 29 29 31 32 32 34 34 34 33 33 33 35 36 35 35 35 36 38 38 39
38 33 34 38 40 41 42 42 42 40 35 33 34 37 35 30 28 26 26 26 27 28 28 28 30 31 31 31 32 31 29 26 28 31 31 31 30 29 31 35 36 34 32 32 31 31 31 32 33 35 35 35 34 35 36 36 36 37 37 38 39 39 39
40 39 41 42 42 43 43 41 40 39 37 36 37 40 40 37 33 30 30 30 31 31 31 32 32 32 32 33 34 32 29 27 28 30 32 32 30 32 35 37 36 34 33 33 32 32 32 32 34 35 36 37 37 37 37 38 39 39 39 39 40 40 40
43 44 45 45 44 44 44 42 41 40 40 39 40 41 43 43 40 39 37 36 35 34 34 34 34 35 36 37 37 34 31 30 30 31 32 32 33 36 38 38 35 33 33 33 33 34 33 33 35 37 38 39 39 38 38 39 41 41 41 41 41 41 41
44 47 48 48 47 46 44 43 42 41 39 39 41 43 46 46 45 44 42 39 37 35 35 36 37 39 40 40 39 35 33 32 32 33 33 34 36 39 40 38 35 33 33 34 35 35 33 34 36 38 39 40 40 40 40 41 43 43 43 43 43 42 42
45 48 50 50 50 49 46 44 43 41 40 40 42 45 47 47 46 43 40 38 37 37 38 40 42 43 42 41 39 36 34 34 35 35 36 37 39 41 40 38 36 34 35 36 35 34 33 35 37 38 40 41 41 41 40 40 43 44 44 45 45 44 44
46 47 49 50 51 50 48 46 44 43 42 41 42 44 44 43 43 42 41 41 41 41 43 44 44 43 42 41 38 36 36 37 38 38 38 40 42 41 39 37 36 36 37 38 35 34 35 37 38 38 40 41 41 41 40 39 41 42 44 45 46 47 47
46 47 48 49 50 51 50 49 47 46 45 44 44 43 42 41 41 42 43 43 42 42 42 42 42 42 41 39 38 37 38 39 39 40 42 44 44 42 40 37 36 37 38 38 36 35 36 39 40 40 41 42 42 42 41 40 40 41 43 44 46 47 48
43 45 47 49 50 50 50 50 49 48 47 46 45 44 44 43 43 43 43 42 41 40 40 39 39 39 38 37 37 38 40 41 43 45 47 47 45 42 40 37 36 38 39 39 38 37 38 40 41 42 42 42 41 42 42 41 41 42 43 44 45 47 47
42 42 43 45 48 48 49 49 49 49 49 47 46 46 45 45 45 43 42 41 40 39 39 39 38 39 39 40 41 43 45 47 48 49 49 47 45 43 40 37 37 39 40 41 41 41 41 41 42 44 44 43 42 42 42 43 44 44 45 45 46 47 48
45 42 41 41 43 45 47 48 48 49 50 49 49 49 49 49 48 47 46 46 45 44 45 45 44 44 45 47 49 51 52 52 51 50 48 47 46 44 42 40 40 40 42 44 45 44 43 43 44 46 46 44 43 43 43 44 45 46 47 48 48 48 49
42 40 40 41 42 43 44 46 46 47 47 48 49 50 51 50 49 48 48 49 49 49 50 51 50 50 52 54 55 56 55 53 50 49 49 48 48 46 45 43 42 43 46 47 46 45 45 45 47 48 47 45 44 44 45 46 47 49 50 51 51 51 51
40 40 43 45 46 46 46 46 46 46 45 45 46 47 49 49 49 49 50 51 51 52 53 54 55 55 55 56 56 55 53 50 49 50 50 50 49 48 47 46 46 47 49 49 47 46 47 48 49 48 47 46 46 47 48 49 51 53 54 54 54 54 53
44 47 50 50 50 49 49 49 49 49 49 48 48 49 50 50 50 51 51 52 53 53 54 55 55 55 54 53 52 51 50 50 51 51 50 50 50 51 50 50 50 50 49 48 47 47 48 49 49 48 47 48 49 50 51 53 55 57 57 57 56 55 55
51 53 54 54 53 52 52 53 53 54 53 52 52 52 52 53 53 53 53 53 54 54 55 55 54 52 51 50 50 50 51 51 50 49 49 50 52 54 55 54 52 50 49 48 48 49 50 49 49 48 49 50 52 53 54 57 58 59 58 57 57 57 58
54 54 54 55 55 55 56 57 58 58 56 54 53 53 53 53 54 54 54 54 55 56 56 56 54 51 50 50 51 52 52 52 52 52 52 54 56 57 57 54 51 49 49 49 49 50 50 50 50 51 52 54 55 56 58 60 60 59 59 59 60 61 62
56 55 56 56 56 58 59 60 61 60 57 54 53 52 52 53 53 53 53 53 52 53 52 52 51 51 51 52 53 53 54 54 55 55 56 55 55 56 57 55 53 51 51 51 52 52 52 53 54 55 56 58 59 60 61 62 61 62 63 64 66 68 69
56 56 56 56 56 57 58 58 59 58 55 53 54 54 54 54 54 53 51 49 49 50 50 51 51 51 52 54 55 56 57 57 57 56 55 54 53 54 57 59 58 56 56 55 55 55 56 57 59 60 61 62 63 64 65 66 67 69 70 72 74 75 76
54 55 56 56 56 56 56 56 57 57 56 55 54 53 52 51 51 50 49 48 48 49 50 51 52 53 54 55 56 57 57 57 56 55 54 54 53 54 56 58 60 60 60 59 60 61 62 63 64 65 66 67 68 70 72 73 75 76 77 77 77 78 79
56 57 58 58 58 58 58 58 58 58 57 56 55 53 50 49 48 48 48 47 46 47 48 49 51 52 53 54 55 56 56 57 57 58 58 58 58 58 58 59 61 62 63 64 66 67 67 67 68 70 71 73 75 76 77 78 78 78 79 79 80 81 82
60 61 62 62 61 62 62 61 59 58 56 55 54 53 52 51 51 50 49 48 46 47 48 49 51 52 53 54 54 55 56 57 59 60 60 61 61 61 62 63 63 64 66 68 69 71 72 73 74 76 77 77 78 78 78 79 79 80 82 84 84 84 85
59 60 60 60 60 60 60 60 59 58 58 57 57 57 56 56 56 55 53 50 49 49 50 52 53 54 56 57 57 58 59 60 61 61 61 63 64 65 66 68 69 70 72 74 75 77 78 80 80 80 80 80 80 80 81 83 83 84 84 86 86 86 86
56 57 57 56 57 57 57 58 59 60 61 61 61 61 60 60 59 57 55 53 53 53 53 54 55 57 58 60 62 64 65 66 68 69 70 71 73 74 75 76 78 80 81 82 83 84 84 84 84 84 84 84 84 84 84 85 85 85 85 85 87 88 88
58 58 57 57 58 58 59 60 60 61 61 62 62 62 61 61 60 59 58 57 57 58 58 59 59 60 61 62 64 67 68 69 71 73 74 76 77 79 79 80 82 85 86 86 86 86 86 87 87 87 87 87 87 86 86 85 86 87 87 86 86 86 86
59 60 60 60 61 61 62 63 63 63 63 63 63 63 62 62 62 62 62 62 63 64 65 65 66 67 68 69 70 71 71 72 73 74 75 77 78 79 80 80 81 84 86 86 85 85 86 86 87 87 88 88 88 88 88 87 87 88 87 87 86 85 85
60 61 61 63 63 64 65 66 66 66 66 66 66 66 66 66 66 66 67 68 69 70 71 72 73 74 74 75 75 75 75 76 77 78 78 79 80 80 81 80 81 83 84 85 86 86 86 87 87 88 89 89 90 90 90 89 88 88 87 87 87 87 87
64 65 65 66 66 67 68 68 69 69 69 69 69 69 70 70 71 72 73 74 75 76 77 78 78 78 79 79 79 79 80 80 81 81 81 82 82 82 82 82 83 84 85 86 87 88 88 88 88 88 89 89 89 89 89 89 89 89 89 90 90 91 91

ECMWFFLT1_250_spd_060.txt.gz
Wind_Speed
37 39 41 38 35 35 36 33 30 29 30 34 35 33 36 40 40 38 32 26 22 22 21 21 21 23 24 24 23 21 21 23 24 24 22 22 22 23 22 22 23 23 22 23 24 24 25 26 27 28 29 30 32 32 31 32 32 33 34 34 34 33 31
38 38 40 38 38 39 37 35 35 34 32 36 37 35 36 37 34 30 25 21 20 19 19 18 19 20 21 21 19 19 20 22 23 23 22 21 22 23 23 24 25 24 24 24 26 26 26 27 29 30 31 32 33 34 34 33 32 32 33 33 34 33 32
41 41 40 39 40 41 38 37 37 36 34 34 35 35 35 30 26 22 18 16 15 14 15 15 16 17 18 19 18 18 20 21 23 23 22 21 21 22 23 23 25 26 26 26 27 27 27 29 30 31 32 33 34 34 34 32 31 32 32 33 33 33 33
44 44 42 40 40 40 38 36 35 35 34 34 33 34 30 23 19 18 15 14 13 13 13 13 14 15 16 16 17 18 19 21 24 24 23 21 21 23 24 23 24 25 27 27 28 28 29 30 32 33 34 34 35 36 35 33 33 33 33 32 33 33 33
44 44 42 41 40 40 38 35 34 35 36 36 34 31 27 21 18 17 16 15 15 14 14 14 15 16 16 16 17 18 19 21 24 25 24 23 23 25 26 26 26 28 29 29 29 29 29 30 32 33 35 36 36 36 35 35 35 35 34 33 33 33 34
44 44 43 42 41 41 39 36 35 36 38 38 36 31 27 23 20 18 18 17 17 16 16 17 17 17 18 18 17 18 20 22 24 25 26 25 24 26 28 30 31 33 33 32 31 30 30 30 31 33 36 37 36 35 36 37 36 35 35 35 35 35 34
44 44 43 43 43 42 40 36 35 37 38 39 37 33 31 28 24 20 19 19 19 18 18 19 18 17 18 18 17 18 20 22 24 25 25 24 24 26 29 32 34 36 35 32 32 31 30 31 32 34 36 36 36 36 37 37 35 35 36 37 36 35 35
44 44 44 44 43 42 40 38 37 38 39 40 38 35 34 31 26 22 20 21 21 19 19 19 19 18 18 18 18 18 19 21 22 23 22 23 24 26 29 33 35 37 36 33 32 31 31 32 34 35 37 37 38 38 37 36 36 36 37 38 38 37 37
45 45 45 45 44 42 41 42 41 39 39 39 38 36 35 31 26 24 23 22 21 20 20 21 20 21 21 21 21 21 20 21 21 22 23 24 25 26 28 33 37 38 37 34 31 31 32 34 35 36 37 38 38 37 38 38 38 37 37 38 39 39 38
46 45 45 45 44 43 43 44 42 40 40 40 38 37 36 32 28 26 25 23 22 22 23 23 23 24 24 24 24 23 23 22 23 25 26 28 29 28 28 31 36 39 38 34 33 33 34 36 36 36 36 38 39 39 40 39 37 35 36 37 38 38 38
46 46 45 45 44 44 44 45 44 41 41 41 41 41 38 35 32 30 27 25 25 25 25 26 26 26 26 26 25 25 25 26 27 28 30 31 32 32 29 28 33 38 38 35 35 35 35 37 36 35 36 37 39 40 40 38 36 36 38 39 39 40 41
47 48 49 50 50 49 47 47 46 43 42 43 45 45 42 38 37 35 32 31 30 28 27 28 28 27 26 26 26 27 28 29 30 31 32 33 34 33 31 29 31 35 36 36 35 36 38 39 36 35 36 37 38 39 39 39 39 39 39 40 40 42 42
48 50 53 55 57 56 51 47 46 43 41 44 47 46 45 44 42 39 37 36 35 33 31 29 28 27 27 28 28 29 30 31 32 33 34 36 36 35 32 30 29 31 34 35 35 37 40 39 37 36 37 37 38 38 40 43 42 40 40 41 42 44 44
47 49 51 53 56 56 52 48 46 43 41 44 46 46 46 47 45 42 40 38 37 36 35 33 32 31 31 31 31 30 32 33 34 34 37 39 38 36 34 32 31 32 34 35 36 40 42 40 37 37 37 38 38 38 40 44 44 41 41 43 44 45 46
45 46 48 50 51 52 51 49 48 45 43 44 45 45 45 45 44 43 42 40 38 38 39 38 38 38 38 36 34 33 34 35 35 38 40 40 39 37 35 34 34 34 35 37 39 43 43 41 38 38 38 38 37 37 39 43 45 43 43 45 45 47 48
45 46 47 49 50 50 51 51 50 47 46 46 45 44 43 42 41 42 42 41 40 40 41 41 42 42 41 40 38 37 36 36 38 41 42 41 40 38 37 38 37 36 37 39 42 45 45 42 40 39 38 38 37 37 39 43 44 43 43 45 46 47 48
47 47 49 50 50 51 52 52 51 50 49 49 47 45 44 43 42 42 42 41 41 42 43 43 44 44 44 42 40 38 38 39 41 42 42 42 41 41 42 41 39 38 39 42 45 48 47 42 40 40 39 40 39 37 39 43 46 45 44 45 47 48 48
51 48 49 51 52 53 53 53 53 52 52 52 50 49 47 46 45 45 44 43 43 44 45 45 45 45 44 43 41 40 40 40 41 42 42 43 44 45 45 43 40 39 41 44 48 50 49 45 41 39 40 42 40 37 38 42 47 48 47 48 49 49 48
54 51 50 51 52 52 53 52 52 52 53 52 52 52 52 51 50 49 48 46 45 46 47 46 45 45 44 43 43 42 40 40 41 42 43 44 46 47 46 43 42 42 45 49 52 51 50 47 42 40 41 42 42 41 40 41 44 48 49 50 50 50 48
55 53 51 51 51 52 52 52 51 52 52 51 51 52 53 53 52 51 50 50 49 48 48 48 47 46 46 46 45 44 42 42 43 44 44 46 46 46 45 44 45 48 51 53 52 49 49 47 44 43 43 43 45 46 44 41 43 46 49 50 51 50 49
53 50 47 48 50 50 51 51 51 52 51 50 50 50 51 52 52 51 51 51 51 51 51 51 50 49 49 49 48 46 45 45 46 46 46 46 46 46 47 49 51 54 55 53 50 48 49 48 46 46 46 46 47 48 46 43 43 44 47 49 51 51 49
48 47 47 48 50 51 51 51 52 52 51 50 50 51 51 51 51 51 51 51 51 51 52 52 51 50 50 49 48 48 47 47 47 48 48 49 49 50 52 54 56 55 53 51 50 48 48 48 47 48 48 48 49 49 47 45 44 44 46 48 50 50 49
48 49 50 51 52 52 53 53 54 53 52 51 51 51 51 51 52 52 52 52 52 52 53 53 53 51 50 48 48 47 47 47 48 49 51 51 51 53 55 56 55 53 51 50 49 48 48 49 49 50 51 50 49 48 47 46 46 47 48 49 50 50 51
50 52 54 54 53 53 53 54 55 55 55 54 53 53 52 52 52 52 52 53 54 54 54 54 54 53 52 50 49 48 48 49 50 52 53 53 55 56 56 54 51 50 49 48 48 48 49 51 53 52 51 49 49 48 48 48 49 49 50 52 52 53 55
47 49 52 53 53 53 53 53 54 55 55 54 54 54 54 53 51 51 52 52 52 52 52 52 53 53 52 52 52 52 52 52 53 54 56 56 56 55 52 49 47 47 47 47 48 49 51 53 55 53 50 50 50 51 51 52 52 53 54 55 56 57 58
48 49 50 50 50 51 52 52 51 51 52 51 51 50 50 51 51 52 52 53 52 52 51 52 52 53 54 55 55 55 56 56 56 57 56 55 53 50 48 46 46 46 47 47 48 49 50 51 52 52 51 52 52 52 54 55 56 57 58 60 60 61 61
51 51 50 49 50 51 52 52 51 50 50 50 49 49 51 52 53 54 56 56 57 57 56 56 56 57 59 58 57 57 56 56 55 53 51 50 49 48 47 47 47 47 48 49 49 50 51 52 52 53 54 56 56 56 58 59 60 61 62 63 64 64 64
51 51 51 52 52 52 53 53 52 51 51 51 52 54 56 57 58 59 60 60 60 61 61 61 61 61 61 59 58 56 53 51 50 49 49 50 49 48 48 48 47 48 49 51 51 53 55 56 56 57 58 59 60 61 62 63 64 65 66 66 67 67 68
50 50 50 52 52 53 55 57 56 55 55 56 58 61 61 62 62 62 62 62 63 63 62 62 62 61 60 58 55 52 49 48 48 49 50 50 49 48 48 48 48 49 51 53 55 57 59 60 61 62 62 63 64 65 66 67 68 68 69 69 70 72 75
53 53 53 53 53 53 56 59 60 60 59 60 62 64 65 65 64 63 64 64 64 63 62 60 59 57 56 54 51 49 48 48 49 50 51 50 49 48 48 47 47 49 52 54 56 58 60 62 63 64 64 65 66 67 68 70 71 72 75 77 79 81 83
57 56 57 58 57 56 58 60 61 62 63 63 63 64 65 66 66 65 65 64 63 62 61 59 58 57 55 54 52 51 52 52 52 53 52 51 49 49 49 49 49 51 54 56 58 59 60 62 63 65 67 69 71 72 74 76 78 80 83 86 87 88 89
57 58 59 60 60 60 61 62 63 64 65 65 64 64 65 66 67 66 65 64 63 62 61 60 59 59 58 57 57 57 58 58 58 57 55 54 52 52 53 53 55 57 59 61 62 63 65 66 68 70 72 74 76 78 80 81 83 84 85 87 88 89 89
58 59 60 61 61 62 63 65 66 68 69 67 66 66 66 66 67 66 65 64 64 64 64 64 63 62 61 62 62 63 64 64 63 61 59 58 57 57 57 58 60 62 63 65 66 67 69 71 73 74 76 77 79 80 81 82 82 83 84 84 85 87 88
61 62 63 63 63 64 66 67 68 68 69 68 66 66 66 66 66 66 65 65 65 66 66 66 66 66 67 67 67 67 66 65 64 62 61 61 61 61 61 63 65 68 70 71 72 74 76 77 78 79 80 81 81 81 81 81 82 82 83 83 84 85 87
65 66 65 65 64 65 66 67 67 67 67 67 66 66 67 67 67 67 67 67 68 68 69 69 70 70 69 69 68 68 67 65 65 65 65 65 66 65 66 68 72 75 77 79 80 81 82 82 83 83 83 83 83 82 82 82 82 83 84 84 85 85 85
67 67 67 66 66 65 65 65 66 65 66 66 67 67 68 68 68 68 68 69 69 70 70 71 71 70 69 68 68 69 69 69 69 70 70 71 71 72 72 74 78 81 83 85 86 87 87 87 86 86 85 85 84 83 83 82 81 81 81 81 81 80 80
68 68 68 68 68 67 67 67 66 65 65 66 66 67 68 68 68 68 68 69 70 70 70 71 71 71 71 71 71 72 73 74 74 75 76 77 78 79 80 82 83 86 88 89 91 91 90 89 88 87 86 85 83 82 80 79 79 79 78 79 80 81 83

ECMWFFLT1_250_spd_063.txt.gz
Wind_Speed
41 42 44 42 37 35 35 35 37 38 38 37 38 40 38 34 35 35 33 36 41 40 37 38 37 35 31 27 26 25 24 23 23 23 24 24 22 21 21 22 23 24 24 23 23 24 25 25 25 26 27 28 28 28 28 29 30 32 33 34 35 33 32
43 43 44 42 40 39 39 38 38 39 41 41 41 42 40 37 36 37 39 43 44 40 36 36 35 31 28 25 23 22 22 21 21 21 21 21 20 20 20 22 23 23 25 25 25 25 25 26 26 28 28 29 30 30 30 31 32 34 36 37 36 34 34
42 42 42 41 40 40 40 39 38 39 41 41 41 41 40 38 36 35 37 40 40 38 37 36 30 26 23 20 19 20 19 18 19 19 20 20 20 20 20 21 22 23 25 26 27 26 25 26 27 28 30 31 32 31 31 32 34 36 38 38 36 35 36
43 42 41 40 40 41 41 40 38 38 39 39 39 39 39 38 35 33 33 36 37 36 35 30 24 20 19 17 17 17 17 17 18 19 19 20 20 20 21 21 22 23 25 26 28 28 28 29 29 30 32 33 32 32 32 33 35 37 38 38 36 36 38
44 41 40 39 39 40 41 40 39 38 38 38 38 39 40 40 38 36 36 34 33 32 30 25 21 20 19 18 18 18 18 18 19 20 20 20 21 21 22 22 23 25 26 27 29 31 31 32 33 35 35 33 32 32 32 34 36 38 39 38 38 38 38
47 43 41 40 40 41 41 41 41 41 41 40 38 38 41 41 39 37 35 32 30 28 27 25 23 21 21 20 20 20 20 20 21 21 21 21 21 22 22 23 24 25 25 26 29 32 34 35 37 38 37 34 32 32 33 36 38 39 39 39 39 38 36
50 47 45 44 44 45 44 44 45 45 43 42 40 40 40 40 39 36 34 33 32 27 26 26 24 23 23 22 22 22 21 22 22 21 21 21 21 22 22 22 22 22 22 24 28 31 34 36 37 39 38 35 33 33 35 38 39 38 38 37 38 38 38
51 50 48 47 47 48 48 49 49 47 45 45 44 43 41 40 38 36 36 37 36 31 27 26 25 25 25 25 25 24 23 23 22 22 22 22 22 22 21 21 21 22 23 26 28 29 33 36 37 39 39 36 35 35 37 40 41 39 38 36 37 39 39
52 51 50 49 49 49 50 51 51 49 48 47 47 46 44 42 40 37 38 40 39 36 32 29 28 28 28 27 27 26 25 24 24 24 25 25 25 24 24 24 25 26 28 29 29 28 31 35 37 39 38 37 37 37 38 41 42 41 39 36 37 38 38
51 51 50 50 50 49 49 51 51 50 49 49 48 47 46 44 41 38 39 42 42 40 38 34 32 31 29 28 27 27 27 26 27 28 28 28 28 27 27 28 29 30 31 32 30 28 29 32 35 36 36 37 38 39 40 42 42 41 40 38 37 39 39
49 50 51 51 51 51 50 50 50 49 48 49 48 47 45 44 42 40 41 43 43 42 39 37 36 34 32 30 30 29 29 29 30 31 30 30 29 29 30 31 32 33 33 34 32 30 28 28 30 33 35 36 38 40 42 44 44 42 41 40 39 40 41
45 46 51 52 52 53 52 51 50 48 47 47 47 46 45 44 43 42 43 44 43 42 40 38 38 37 36 34 33 32 32 32 32 32 32 31 31 32 33 33 34 34 35 35 34 31 29 27 28 31 33 36 38 41 44 45 45 43 41 41 41 42 42
42 41 46 50 52 53 53 51 49 47 47 47 46 45 46 46 46 45 45 44 43 42 41 40 40 40 39 37 36 36 36 35 34 33 33 32 33 34 34 34 35 35 37 37 35 33 31 29 29 31 33 35 38 42 46 46 46 44 41 41 42 43 43
42 41 43 47 51 53 54 52 49 47 47 47 47 46 46 48 49 48 48 46 45 44 44 43 43 42 41 39 39 39 38 37 35 35 34 35 36 36 36 36 37 38 39 39 37 35 34 32 33 33 34 35 39 44 47 48 49 45 41 42 42 42 44
41 43 45 47 50 54 55 54 52 50 49 50 50 49 49 50 50 50 50 49 48 47 47 47 47 46 45 44 42 41 39 38 37 37 38 38 39 38 38 38 39 41 42 40 39 38 37 36 35 35 36 36 40 45 48 50 51 47 42 42 43 44 46
41 44 48 49 50 54 56 56 54 51 50 51 52 53 53 53 52 52 52 52 51 50 49 50 50 50 49 48 46 44 42 41 40 41 42 42 42 41 41 41 41 43 43 41 41 40 39 38 38 38 38 38 41 46 49 52 53 48 43 42 43 45 46
42 43 47 49 49 52 54 54 52 50 49 51 53 54 54 54 53 53 53 52 52 50 50 50 51 51 51 50 48 47 45 44 44 45 45 44 44 44 43 43 43 44 44 43 42 41 40 40 41 41 41 41 42 46 50 53 54 49 43 42 44 45 47
44 44 45 48 50 52 52 49 47 47 49 51 52 52 52 53 53 53 52 51 50 49 49 50 50 49 49 49 48 48 47 46 46 46 46 45 45 45 45 44 44 44 44 44 43 42 42 43 43 43 43 43 44 47 52 55 54 49 45 43 45 46 47
48 48 48 49 51 54 53 49 46 48 51 53 52 51 51 51 53 54 55 54 52 50 49 48 47 47 48 48 48 49 49 48 47 47 47 47 46 46 46 45 44 44 45 45 44 44 44 44 45 45 44 44 46 50 55 55 52 49 46 45 45 46 46
49 52 55 55 54 56 57 54 51 51 54 54 52 52 51 51 52 53 54 55 54 53 51 50 50 50 50 49 49 49 49 49 48 48 48 47 46 46 46 45 45 45 46 45 45 45 45 46 46 47 47 48 51 53 54 54 51 49 46 45 45 45 45
49 52 55 55 54 56 59 59 57 55 55 54 54 53 52 52 53 53 53 53 53 52 52 53 53 53 53 51 50 50 49 49 48 48 48 48 47 47 46 45 45 45 46 46 46 46 47 48 49 49 51 53 54 53 52 51 50 47 46 45 45 45 44
49 49 50 52 52 53 55 59 60 59 57 55 55 54 53 53 54 54 53 52 51 51 52 53 53 53 52 51 50 49 49 48 48 48 48 48 48 47 46 45 45 46 47 47 48 48 50 50 51 53 55 56 54 50 47 47 46 45 45 44 43 43 43
49 48 49 51 52 51 53 57 59 59 58 56 56 55 55 55 56 55 54 52 51 51 52 51 51 50 49 48 48 48 48 48 49 48 48 49 49 47 46 45 46 47 48 50 51 52 52 53 54 55 55 54 51 47 44 43 43 43 44 44 44 45 45
52 51 51 51 51 52 54 56 58 59 59 57 56 56 55 56 55 54 53 52 51 51 51 50 49 49 48 48 47 47 48 48 48 48 48 48 48 47 46 46 47 49 51 53 53 54 55 55 56 54 50 48 47 45 43 42 41 42 44 46 48 49 49
51 51 51 51 51 52 54 56 57 59 59 57 55 54 53 53 53 53 52 52 53 53 53 52 51 51 51 51 50 50 50 49 49 49 48 47 47 47 47 49 51 52 54 55 56 56 56 54 52 49 46 46 47 46 45 44 43 45 46 47 49 51 52
48 48 47 48 51 53 54 55 55 57 59 59 57 55 53 53 54 54 55 55 55 56 56 55 55 55 54 54 54 53 53 51 50 49 48 49 50 50 51 53 55 56 57 57 57 55 52 50 49 48 48 48 48 47 47 46 47 47 48 49 51 52 54
46 45 45 47 51 54 55 54 54 55 57 59 58 57 57 56 57 57 57 58 58 58 58 57 57 56 55 55 54 54 53 52 51 51 51 52 53 55 56 57 59 60 59 58 54 51 49 49 50 51 52 52 50 49 49 50 50 50 51 52 54 55 57
45 45 46 48 51 53 54 54 53 54 54 55 55 55 55 56 56 57 57 57 57 57 56 56 54 53 53 53 54 54 54 54 53 54 55 56 58 60 61 61 61 59 57 54 52 51 51 52 54 55 56 55 54 53 52 52 52 52 54 56 58 60 62
48 48 49 49 49 50 51 51 52 52 53 53 53 53 53 54 55 55 54 55 55 54 53 52 51 51 52 53 55 55 56 56 56 57 58 59 61 61 61 60 59 57 55 54 54 54 55 57 58 59 58 57 56 55 53 53 54 57 59 61 63 64 67
53 52 53 54 52 50 49 50 51 51 53 54 54 53 53 54 54 54 53 53 53 52 51 51 51 53 54 56 57 58 58 59 59 59 60 60 60 60 59 58 57 56 56 56 56 58 59 61 61 61 59 58 57 57 57 59 60 62 63 65 66 69 73
56 56 56 57 57 54 53 52 51 52 55 57 57 56 57 57 57 57 55 53 52 51 51 52 54 55 57 59 60 61 61 60 60 60 60 60 59 59 58 58 58 58 58 59 60 62 63 63 63 61 60 60 61 61 62 64 65 66 67 69 72 75 79
59 58 58 58 58 57 56 54 53 55 59 60 60 60 60 60 60 59 58 56 55 54 54 55 56 57 59 60 61 62 61 61 60 61 61 60 60 59 60 60 61 61 62 64 66 66 66 65 64 63 62 63 64 65 66 67 68 70 72 74 77 82 86
61 61 60 59 59 58 57 56 56 58 61 62 62 63 63 62 62 61 60 59 59 58 58 59 59 59 60 61 61 62 63 62 62 61 61 61 62 62 63 64 64 65 67 69 70 69 68 67 66 65 65 66 67 68 69 70 72 74 77 80 84 89 92
61 62 62 62 62 61 60 60 59 61 63 65 66 67 67 65 64 63 62 62 61 62 62 62 62 62 63 63 64 65 65 65 64 63 64 64 65 65 66 67 68 70 72 72 72 70 69 68 68 68 68 69 70 72 73 75 77 79 83 87 91 94 94
59 61 61 62 62 62 63 63 63 64 66 67 69 71 70 68 65 64 64 64 64 64 65 65 66 66 67 68 68 68 68 68 67 66 66 67 67 68 69 71 72 74 75 74 73 71 71 71 71 72 73 74 75 77 78 81 83 86 90 93 96 96 94
58 59 59 60 61 62 63 64 64 65 67 69 71 72 71 69 67 66 66 66 66 67 68 68 68 69 70 71 72 72 71 70 70 69 68 68 69 70 72 74 76 77 77 75 74 73 73 74 75 77 78 79 81 82 85 87 90 93 96 98 98 97 94
60 60 61 63 64 65 65 66 67 68 69 70 71 71 71 70 70 69 68 68 69 69 69 70 70 71 73 73 73 73 72 72 72 71 70 71 72 74 75 77 78 78 77 76 76 76 78 79 81 82 83 84 86 88 90 92 95 98 99 100 99 97 94

ECMWFFLT1_250_spd_069.txt.gz
Wind_Speed
53 50 49 48 46 42 40 41 41 40 40 36 33 33 32 33 33 34 35 35 33 32 32 32 32 33 34 34 35 35 33 29 26 24 25 27 27 27 24 22 21 20 18 17 17 17 18 18 18 18 16 15 17 20 22 25 28 31 33 34 34 33 33
50 49 49 49 46 41 38 38 38 38 38 37 36 35 34 34 34 35 36 37 36 35 35 34 33 34 36 37 37 38 35 30 27 26 26 27 26 25 23 21 21 20 18 17 17 17 18 18 18 17 16 15 17 20 23 25 28 30 32 34 34 34 34
48 47 48 50 48 45 40 37 37 37 37 38 38 37 36 35 35 35 35 37 37 38 38 36 35 36 37 37 38 37 34 31 29 28 28 26 24 22 22 22 22 21 19 18 18 18 19 19 19 18 17 17 19 22 24 27 28 29 31 33 33 33 34
49 47 49 50 50 48 45 42 38 37 36 38 39 38 38 37 36 36 35 37 39 39 38 38 37 37 37 36 36 35 33 31 31 30 28 26 23 22 22 23 23 21 20 19 18 19 20 20 20 20 19 19 21 24 26 28 29 29 30 32 32 32 33
51 50 50 51 51 50 47 45 43 39 36 37 40 40 39 38 36 36 36 37 38 37 36 36 36 36 35 33 32 32 32 32 32 30 29 26 24 24 24 24 23 22 22 20 19 20 21 22 22 22 21 21 23 26 28 29 29 29 29 30 31 32 31
53 52 52 52 51 50 48 46 44 41 34 33 37 40 40 40 38 37 36 36 35 35 35 35 35 34 33 31 31 32 32 32 32 31 30 27 26 26 27 26 24 24 24 22 21 21 22 24 24 24 23 23 25 28 29 29 30 30 29 29 30 30 30
52 51 51 52 51 50 48 46 45 43 35 30 32 36 38 39 40 38 37 36 35 35 35 34 34 33 33 33 32 31 32 32 33 32 31 29 27 28 29 27 26 26 26 25 23 23 24 26 26 26 26 26 27 29 30 30 31 31 30 29 29 29 30
48 49 47 49 50 49 48 47 46 45 41 34 29 32 37 39 38 38 36 37 37 36 36 36 35 35 35 36 34 32 32 33 33 32 31 30 29 29 29 29 28 28 28 27 25 25 27 28 29 29 28 28 29 31 31 31 32 33 32 30 30 30 30
44 45 45 46 48 50 48 46 46 46 46 40 31 32 39 40 38 37 36 38 41 41 41 40 38 38 38 38 37 34 33 33 33 33 33 32 30 29 30 30 30 30 30 29 28 28 29 30 30 31 31 31 32 33 33 33 34 35 35 33 32 32 32
42 42 44 45 47 48 48 47 46 45 46 45 41 40 44 44 41 39 38 39 41 43 44 41 39 38 37 38 37 36 35 34 34 33 34 34 33 32 32 32 32 32 31 30 30 30 31 32 32 33 33 33 33 33 34 35 36 38 38 37 36 35 35
46 46 47 47 47 46 46 48 48 46 46 47 46 45 46 46 44 42 39 36 33 36 40 40 39 38 37 38 37 36 35 35 35 34 34 35 36 36 35 34 34 34 33 32 32 32 32 33 34 35 35 36 35 35 34 35 37 40 41 40 39 38 37
51 48 46 46 48 47 47 48 49 47 46 47 49 48 46 45 44 43 42 35 31 34 38 40 41 41 40 41 39 37 36 36 36 35 34 35 36 38 38 37 37 36 35 34 34 34 34 34 35 36 37 38 38 38 36 35 36 40 42 42 42 41 40
54 50 47 44 45 46 45 44 46 47 46 47 50 51 48 46 45 44 43 39 38 42 44 44 43 42 42 42 41 39 38 37 37 36 35 34 35 37 38 38 38 37 36 36 36 37 36 35 36 38 40 41 41 40 38 36 37 40 42 43 43 43 43
58 54 53 51 47 45 44 41 41 43 45 47 49 49 48 45 44 43 42 42 44 46 46 45 43 42 43 43 42 41 40 39 38 37 35 34 34 36 37 38 38 38 37 38 38 38 38 38 39 40 42 43 43 41 40 38 38 40 42 44 44 44 44
59 56 56 55 51 48 46 42 38 39 43 47 48 48 46 43 41 42 41 42 44 44 43 43 42 43 44 43 42 42 41 40 39 38 36 34 34 35 36 38 40 39 39 39 40 40 41 42 42 42 43 44 44 43 42 41 40 40 42 44 44 44 44
57 57 58 57 53 49 47 43 39 40 43 45 46 46 45 41 39 40 41 43 45 44 43 43 43 43 43 42 42 42 41 41 40 38 37 36 35 37 38 40 41 40 41 41 42 43 44 45 44 43 44 45 45 44 43 42 41 41 42 44 44 43 43
54 55 57 56 51 48 47 45 44 44 45 44 43 42 42 40 37 38 39 42 43 43 43 43 42 41 41 41 42 43 42 41 41 40 38 38 38 39 39 40 40 40 42 43 44 45 46 45 43 41 44 47 47 45 44 42 42 42 42 43 43 43 42
52 51 51 52 52 50 49 47 47 47 47 45 43 40 40 40 39 38 40 41 39 39 42 44 44 43 42 42 43 44 43 43 42 40 39 39 39 38 37 38 39 40 41 43 44 46 46 44 41 40 45 49 49 47 45 44 44 43 42 42 42 42 42
50 47 46 48 50 51 50 49 48 48 48 45 43 41 41 41 40 40 43 44 44 44 46 47 46 44 43 43 43 45 45 45 44 41 39 38 37 36 36 37 38 38 40 42 44 45 45 43 41 42 46 48 48 48 47 46 45 45 43 42 41 41 43
54 48 48 47 45 45 47 47 46 46 45 43 43 44 43 41 40 41 44 47 48 49 50 49 46 44 43 44 45 46 47 47 45 42 39 37 36 36 37 37 38 38 40 41 43 43 44 44 44 45 46 47 47 48 48 47 46 45 44 42 41 42 43
54 44 43 45 45 44 44 44 45 46 44 43 44 45 43 42 42 43 45 48 50 52 53 53 51 48 46 47 48 48 48 47 45 41 39 37 37 38 38 38 39 40 41 42 43 44 45 46 48 46 45 47 48 48 49 48 46 45 44 42 42 43 44
49 41 41 45 46 45 44 43 44 46 47 46 46 45 43 43 45 45 47 50 53 55 56 54 52 50 50 51 51 50 47 44 42 40 39 38 39 40 40 40 41 42 42 43 44 45 46 48 48 46 45 48 48 48 49 49 46 44 44 45 45 45 45
45 42 43 46 48 47 46 46 45 45 47 48 47 45 45 45 46 46 48 50 53 55 55 53 52 51 51 52 51 50 47 44 42 42 42 42 42 43 43 42 43 44 44 44 45 45 46 47 47 46 46 48 49 48 49 49 47 46 46 47 47 47 47
44 44 44 44 45 46 45 46 45 44 45 46 46 44 45 45 45 46 48 50 52 54 54 54 53 51 51 52 51 50 49 46 46 46 46 46 47 47 47 46 46 46 46 46 46 46 46 47 47 47 46 48 49 49 49 49 49 48 48 49 49 49 48
45 46 45 43 44 43 41 42 42 43 44 45 45 44 45 45 45 47 50 51 52 54 55 55 53 51 51 51 50 49 49 49 49 51 52 52 51 51 50 49 49 49 49 49 48 48 47 48 48 48 48 49 50 50 49 50 50 49 50 50 51 50 51
45 45 44 45 44 43 41 40 40 43 47 46 45 46 46 48 49 49 51 53 53 53 53 53 53 52 52 52 50 50 51 52 54 55 56 55 54 53 53 52 52 52 51 50 50 49 48 49 50 50 50 50 51 51 51 51 51 51 51 52 52 53 53
46 46 46 46 46 45 44 43 43 46 48 47 47 49 50 52 53 52 51 52 53 53 52 52 53 53 52 52 52 52 53 54 55 55 55 55 54 54 54 54 54 53 52 51 50 50 50 51 51 51 52 52 53 53 52 52 52 52 53 54 55 55 56
50 51 50 49 49 49 49 49 50 49 47 48 50 51 52 54 55 54 52 52 53 54 54 52 51 50 51 51 51 52 52 53 53 52 53 54 54 54 54 54 54 53 52 52 51 51 52 52 53 54 54 54 55 55 54 53 52 53 54 56 57 58 58
53 55 54 53 53 53 53 54 54 52 50 51 53 54 54 54 55 55 55 55 55 56 57 55 52 50 51 51 51 51 52 52 52 52 53 54 55 54 53 53 53 52 52 52 52 53 54 55 55 56 55 55 56 56 55 54 55 55 56 58 59 59 59
55 55 56 56 53 52 53 53 53 53 53 53 54 56 57 57 57 58 58 59 59 60 61 61 58 56 54 53 53 53 52 52 52 53 53 53 53 52 51 51 52 53 54 54 55 55 56 56 55 55 54 55 56 56 57 57 57 57 59 60 61 61 61
55 55 56 55 52 49 50 52 52 53 54 54 55 57 59 59 59 58 59 60 61 62 64 64 63 62 59 58 56 55 54 53 53 53 53 53 53 54 53 53 53 54 55 55 56 56 55 54 54 54 54 55 56 57 57 58 59 60 61 62 63 64 64
54 54 52 52 52 50 48 50 53 54 56 57 58 59 60 60 58 57 58 58 60 62 65 66 66 65 64 63 61 59 58 58 57 56 55 56 56 57 56 56 55 55 55 55 55 56 56 55 55 56 56 57 58 59 59 60 62 63 64 65 66 67 67
53 53 50 48 50 49 47 47 51 54 56 57 58 59 60 60 59 59 59 60 60 62 64 66 67 67 67 66 65 64 63 63 62 61 60 60 60 59 59 58 57 56 57 57 57 58 58 58 58 59 59 60 61 62 63 64 65 66 67 68 68 69 69
54 55 53 50 48 48 47 48 51 53 55 55 56 57 58 59 60 60 60 61 62 63 63 64 65 66 65 65 65 66 66 66 65 64 63 63 62 62 61 60 60 59 60 60 61 61 61 62 62 62 63 63 64 65 67 68 69 70 70 71 72 72 72
57 57 57 56 54 52 50 51 53 55 55 56 56 57 57 58 59 60 61 61 61 62 62 63 63 64 64 63 64 65 65 65 65 65 65 65 65 64 64 63 62 62 63 63 63 64 64 65 66 66 66 67 68 69 71 72 72 73 74 75 75 75 75
58 58 59 60 61 59 56 54 54 56 57 57 57 57 57 58 60 61 62 61 61 62 63 64 64 64 65 66 66 66 65 64 63 63 64 64 64 64 63 63 63 64 64 65 66 67 67 68 69 69 70 71 72 73 74 75 76 77 77 78 78 77 77
60 60 61 63 64 63 61 58 57 57 57 58 59 59 59 60 62 62 62 62 62 63 65 66 65 66 67 68 68 68 68 66 65 65 65 65 64 64 64 64 65 66 68 69 69 70 71 71 72 73 74 75 76 76 77 78 79 79 79 79 79 79 79

ECMWFFLT1_250_spd_072.txt.gz
Wind_Speed
53 51 49 48 48 46 44 41 39 37 38 38 38 37 36 36 36 35 34 33 33 32 29 27 26 26 26 27 26 26 26 26 26 27 28 28 29 30 29 28 26 22 19 17 16 16 16 16 17 17 17 17 17 17 18 19 21 22 23 24 25 26 28
52 49 47 46 47 48 47 46 43 40 39 40 39 37 35 35 36 36 35 35 35 34 31 28 27 27 27 26 27 27 28 27 28 28 28 28 28 29 28 26 24 21 19 18 17 17 17 18 19 18 17 18 18 18 20 20 21 23 24 25 25 26 27
52 46 43 43 44 47 48 47 45 41 39 38 38 36 33 33 35 35 34 34 34 33 31 29 27 26 26 26 28 29 28 28 28 28 27 26 26 26 26 25 23 20 19 19 18 18 19 20 20 19 19 19 19 20 21 21 22 24 25 25 26 26 27
53 48 43 41 41 42 44 44 42 39 38 37 36 34 32 31 31 31 31 32 32 31 29 27 26 25 25 26 27 28 28 27 26 26 25 24 25 25 25 24 22 20 20 20 20 20 21 22 22 21 20 21 21 21 22 22 23 25 26 27 26 27 27
55 51 47 44 42 41 40 39 39 37 38 36 34 33 33 32 31 30 29 29 29 30 31 29 27 25 25 25 25 26 26 26 25 24 25 25 25 26 25 24 23 21 21 22 22 22 23 23 23 23 22 23 22 22 23 24 24 26 27 28 28 28 28
55 53 50 47 46 44 41 39 39 38 39 39 37 35 34 34 35 33 31 30 29 30 32 31 28 25 24 24 25 25 25 25 25 25 27 28 28 28 27 26 24 23 23 24 25 25 25 25 25 24 24 25 24 24 24 24 25 27 29 30 30 30 31
52 52 52 51 49 47 43 42 42 41 41 41 40 39 38 37 36 33 29 27 28 28 29 29 26 23 23 23 24 26 26 26 26 28 29 30 30 30 29 27 26 25 24 26 27 27 27 27 26 25 26 27 27 26 25 25 26 28 29 31 31 32 33
50 51 54 54 52 49 44 45 47 45 43 40 38 38 38 37 36 32 29 28 29 29 29 29 27 25 25 25 25 28 29 29 29 29 30 31 31 30 29 28 27 26 26 27 28 29 29 29 28 27 28 28 28 28 27 26 28 29 30 31 32 33 34
50 53 57 57 55 51 45 43 47 47 46 44 41 39 36 34 34 34 33 33 32 31 31 32 31 30 30 30 31 33 33 32 31 30 30 31 31 31 30 29 28 28 29 29 30 31 31 31 30 29 29 30 30 29 28 28 29 31 31 32 33 34 34
50 53 57 57 55 52 46 42 43 45 45 45 43 42 39 36 35 35 35 34 34 34 33 32 32 32 31 31 33 34 33 32 31 30 30 31 32 32 31 30 30 29 30 32 33 34 34 34 33 31 31 31 32 31 30 30 31 32 33 34 35 35 35
47 50 55 56 54 51 47 45 45 45 45 43 40 39 40 40 39 38 37 38 40 39 36 33 33 33 32 30 32 33 30 30 31 30 32 33 33 33 32 32 32 31 32 33 35 36 36 36 35 34 33 33 33 33 32 32 33 34 35 36 36 36 37
44 46 50 53 54 51 46 44 43 44 44 44 41 39 40 42 42 41 39 40 44 44 43 41 40 40 36 31 34 36 33 32 34 34 34 35 34 33 33 33 33 32 32 34 36 37 37 36 36 35 35 34 35 35 34 34 34 35 37 37 36 38 39
41 43 45 49 54 52 47 44 41 41 43 43 42 41 40 42 43 43 42 43 45 46 48 47 44 42 39 34 37 39 36 35 37 36 36 35 34 34 34 33 34 33 33 34 35 36 37 37 37 37 37 36 36 36 36 35 35 37 39 38 37 38 40
37 40 42 46 53 54 49 46 45 43 42 42 41 39 39 40 42 44 44 44 45 46 46 46 43 41 39 37 40 42 39 39 40 38 36 36 35 36 35 34 34 34 34 34 35 36 37 37 38 39 39 37 37 37 37 38 39 40 40 38 38 39 41
36 39 42 45 50 53 50 47 48 46 43 42 41 40 41 41 41 43 44 43 44 44 43 43 41 41 41 41 43 45 44 45 44 39 36 37 37 36 35 34 34 34 34 35 35 36 37 39 39 40 39 39 38 38 39 39 41 41 39 38 39 40 41
41 41 42 44 46 50 52 51 52 51 45 42 40 39 40 41 40 42 43 43 44 43 43 44 43 43 44 43 44 46 47 46 43 39 38 39 37 36 35 34 34 35 35 36 36 37 38 40 41 40 40 39 39 40 41 41 41 41 39 39 40 41 41
47 44 44 45 47 50 51 52 53 52 46 42 39 38 38 37 37 39 40 42 43 44 46 47 46 46 46 45 44 45 45 43 41 41 41 39 37 36 35 35 35 36 37 37 38 38 40 41 42 41 40 40 40 42 42 42 41 40 40 40 42 42 41
49 46 43 43 47 50 51 52 54 54 49 43 40 37 37 37 37 39 40 42 44 46 48 49 49 49 48 45 45 45 44 42 42 42 41 39 38 37 36 36 36 37 38 39 40 40 40 41 42 42 40 40 42 43 43 42 41 40 41 43 44 43 42
50 48 43 41 43 47 50 53 55 56 53 49 46 44 42 42 42 42 42 43 44 46 48 48 48 48 46 44 44 45 44 42 42 42 41 41 39 38 37 36 37 38 40 41 41 41 40 40 41 41 40 40 42 43 43 42 41 42 43 45 45 44 43
52 51 47 45 45 46 48 51 53 54 53 51 49 49 49 48 47 45 44 44 45 45 45 45 45 45 45 43 43 43 42 41 42 43 44 43 40 38 37 38 39 40 41 42 42 41 40 40 40 40 39 41 43 43 43 43 43 45 45 45 45 45 45
48 50 48 48 48 48 48 50 52 52 52 52 51 50 51 51 51 48 46 45 45 46 45 45 45 44 43 40 39 39 41 42 44 45 45 44 41 40 41 41 40 41 42 43 42 41 41 40 40 40 40 42 43 44 45 45 46 47 46 45 45 45 46
43 47 49 49 50 50 49 49 49 49 50 51 51 51 53 52 51 49 47 46 46 47 47 46 46 44 42 39 38 40 44 46 47 47 47 46 46 45 44 44 43 41 42 42 41 41 41 41 42 43 43 44 45 46 47 48 48 48 47 46 45 45 47
39 43 49 52 53 52 50 48 46 44 45 47 48 49 51 51 49 48 47 47 47 47 47 46 46 45 44 42 41 43 47 49 50 51 50 50 49 48 46 46 45 42 41 41 41 42 42 43 45 47 47 47 47 48 49 50 50 49 49 48 47 46 47
34 38 43 50 54 55 55 52 48 44 43 45 45 45 47 48 48 48 47 47 47 47 47 47 46 47 47 46 46 46 49 51 52 53 53 51 49 48 47 46 46 45 44 44 44 44 44 46 48 49 50 50 49 50 51 51 51 50 50 50 49 48 49
31 34 36 41 47 52 55 56 54 51 48 46 46 47 46 47 49 50 49 48 47 47 48 48 48 48 49 50 50 50 51 52 53 54 53 51 50 49 47 46 46 47 47 46 46 46 48 49 51 52 52 51 51 53 53 52 52 51 51 52 51 50 51
31 32 34 37 40 44 47 49 52 53 51 49 49 49 48 47 48 49 50 50 49 49 50 51 51 51 52 52 52 53 53 54 55 55 53 52 52 51 49 48 48 47 46 46 47 50 51 53 54 54 54 53 54 55 55 53 52 52 52 53 53 52 53
32 32 34 38 41 41 42 44 46 47 48 48 47 47 47 49 49 49 50 51 52 53 53 53 53 52 52 52 52 52 53 54 55 56 55 55 55 53 51 50 48 47 46 48 50 52 53 54 55 54 54 54 55 56 56 55 53 53 53 53 54 55 56
31 33 34 39 43 43 43 43 43 42 43 43 44 45 48 51 51 51 52 52 52 53 53 52 52 51 50 50 51 52 52 54 55 56 57 57 56 55 53 52 50 49 49 50 52 53 54 54 54 54 55 56 57 57 57 55 54 54 54 55 56 58 58
30 32 35 39 43 45 45 45 44 43 40 39 42 46 50 52 51 50 51 50 49 49 50 51 51 51 50 51 52 53 54 55 56 57 57 58 57 56 55 54 53 53 52 52 53 53 53 53 54 55 56 57 57 57 56 55 55 55 56 57 59 59 58
33 31 34 39 44 46 46 46 47 48 46 42 42 46 50 50 49 48 49 49 49 50 51 52 53 53 53 54 55 55 56 57 57 57 58 59 59 57 56 55 54 53 52 52 53 53 53 54 55 56 56 56 56 56 56 57 57 58 58 59 58 58 58
39 36 35 38 43 47 49 49 49 50 51 49 48 49 51 50 48 49 50 50 51 52 53 54 54 54 54 55 55 55 55 56 56 56 57 59 59 57 55 53 52 52 51 52 53 54 55 55 55 56 55 56 56 57 58 58 59 59 59 59 59 59 60
45 43 41 41 41 43 48 52 53 53 53 53 52 51 51 50 48 48 48 49 51 53 55 56 56 56 55 55 54 55 56 56 57 58 59 59 59 57 54 52 52 52 53 54 55 56 56 56 56 57 57 58 59 59 60 60 61 61 61 61 61 62 62
50 49 48 48 46 45 46 51 55 56 56 56 56 53 51 48 46 45 46 47 50 52 54 56 58 58 58 58 57 57 57 58 58 60 60 60 59 57 55 54 54 55 56 57 58 59 59 59 59 59 60 61 61 62 63 63 63 63 64 64 64 64 64
54 53 53 53 52 50 49 51 54 57 58 59 59 58 55 51 49 48 49 49 50 52 54 57 59 61 62 62 63 63 63 62 62 63 63 62 61 61 60 60 59 60 61 61 61 61 61 61 62 62 63 63 64 65 65 66 66 66 67 67 67 66 66
57 56 56 57 57 55 54 54 54 56 59 60 61 60 58 55 54 54 55 55 55 54 55 56 59 60 60 61 62 64 65 65 66 66 66 66 66 66 66 66 66 66 67 66 66 65 65 64 65 65 65 66 67 67 68 68 69 69 69 68 68 68 68
57 57 57 57 58 58 58 57 57 58 59 60 61 61 60 59 59 59 59 58 58 57 56 57 59 60 60 61 61 62 63 64 65 67 67 68 69 70 71 71 72 71 71 71 70 70 69 69 69 69 69 70 70 71 71 71 71 70 70 69 70 71 71
55 55 56 57 57 58 59 59 60 61 61 61 62 63 62 62 62 63 63 61 60 59 60 61 61 61 62 63 63 64 64 64 65 66 67 67 68 69 69 70 71 71 71 72 72 73 73 73 72 72 71 71 71 71 71 71 71 71 71 72 73 74 74

ECMWFFLT1_250_spd_075.txt.gz
Wind_Speed
43 45 45 43 43 43 39 35 33 31 33 34 33 35 37 37 38 38 37 35 31 26 24 26 27 26 25 23 23 23 21 20 19 18 19 18 18 20 21 21 21 20 19 19 18 17 17 17 16 16 16 17 17 16 15 15 16 17 18 18 19 21 22
40 44 45 44 43 42 41 39 37 36 37 37 37 37 36 37 37 37 36 34 32 28 25 26 27 27 27 27 26 25 24 23 22 21 20 19 19 20 20 20 19 18 19 19 17 17 17 18 18 18 18 18 19 19 18 17 17 18 19 19 20 21 22
37 41 42 43 44 42 41 41 40 40 40 39 40 40 37 35 34 34 33 32 33 30 27 28 28 29 30 28 27 27 26 25 24 22 21 20 20 19 19 19 19 19 19 19 18 17 17 19 20 20 19 19 19 20 20 19 19 19 20 20 22 23 23
35 36 38 43 45 44 41 38 38 42 42 39 39 40 39 34 31 32 32 33 35 32 28 29 29 30 30 29 28 28 27 28 26 23 22 21 20 20 20 20 20 20 20 20 19 18 18 19 20 21 22 21 20 21 21 22 22 22 22 22 23 24 25
34 34 39 46 49 50 49 47 46 46 42 40 40 39 38 35 30 30 32 34 35 32 28 28 28 28 28 28 28 27 29 30 27 24 23 22 22 22 22 22 21 21 21 21 19 18 19 19 20 22 23 23 22 22 22 23 24 25 24 24 24 25 26
36 35 39 47 51 52 53 55 58 55 46 41 41 39 37 34 30 29 30 34 35 32 29 27 26 27 29 30 30 30 32 31 28 25 24 24 25 24 24 24 23 22 22 21 20 20 20 20 20 22 24 25 25 24 23 24 25 26 27 26 26 27 28
41 39 39 43 49 51 51 55 59 60 56 50 45 40 36 34 33 31 31 33 34 32 31 30 27 28 32 35 35 35 33 30 29 29 27 27 27 26 25 25 24 23 22 21 21 21 21 21 21 22 24 26 27 26 25 25 26 27 28 29 29 30 29
46 44 41 39 45 51 52 53 56 58 59 58 54 47 40 37 37 38 37 36 35 33 33 34 32 32 35 37 36 34 31 30 31 32 30 29 28 27 27 27 27 25 23 22 22 22 22 22 22 23 24 27 28 28 27 26 26 28 29 30 32 32 31
49 47 44 39 41 50 54 54 54 55 56 56 57 54 48 43 42 44 45 43 41 38 36 35 34 34 38 38 35 32 30 30 32 32 31 29 28 29 29 30 29 27 25 24 24 24 24 24 24 24 26 28 29 29 28 28 28 29 30 31 33 34 33
52 47 46 40 37 45 54 56 54 54 55 55 54 52 50 46 44 45 47 47 45 41 37 34 34 35 39 40 38 35 33 33 33 34 34 32 31 32 33 33 31 29 27 27 26 26 26 26 25 26 27 29 30 30 30 30 30 30 30 32 34 35 35
55 49 45 39 36 41 50 55 56 54 55 57 55 52 51 48 45 44 44 46 47 44 39 36 35 37 40 42 42 41 39 39 38 39 40 37 34 34 35 33 32 31 29 29 28 28 28 27 27 27 29 30 31 30 30 31 32 32 32 33 34 36 36
50 48 42 37 36 39 46 51 55 56 56 58 57 56 55 52 48 46 44 44 45 45 43 40 38 39 41 43 44 45 44 42 41 42 42 38 33 33 35 33 32 32 31 31 31 30 30 29 29 29 30 31 31 31 31 32 33 33 33 34 34 36 37
42 42 40 38 36 38 43 48 53 57 57 58 58 56 56 54 51 48 47 47 46 45 45 45 43 42 44 44 43 45 45 43 41 40 41 39 35 34 36 36 35 34 33 33 33 32 32 31 30 30 31 31 31 31 31 32 33 35 35 35 35 36 38
40 39 40 40 38 37 41 45 50 55 55 56 56 54 53 54 53 51 50 51 51 49 48 48 46 43 45 47 45 45 45 44 43 42 43 44 41 38 38 38 39 37 36 35 34 33 33 31 31 31 31 32 32 32 32 32 34 35 36 36 35 36 38
46 43 41 41 39 38 40 43 47 50 53 54 54 52 50 51 52 53 53 52 50 47 46 47 47 46 46 48 48 48 48 47 47 48 48 48 46 42 40 40 42 40 37 36 35 34 33 32 32 32 32 32 32 33 33 33 34 36 36 36 36 37 39
48 45 42 42 41 39 40 43 45 48 52 54 55 54 52 50 50 50 51 51 49 47 46 47 49 49 49 49 49 50 51 50 51 51 50 49 48 45 42 42 44 42 39 37 36 35 34 33 33 33 33 33 33 34 34 35 36 37 38 38 38 38 39
47 46 44 43 43 42 40 42 44 45 49 54 56 55 54 51 51 52 52 52 51 49 47 48 50 51 51 50 50 50 51 51 51 51 50 50 50 47 44 44 45 44 41 39 38 36 35 35 34 34 34 34 35 35 36 37 38 38 39 39 39 39 39
43 46 45 44 44 43 42 42 42 43 46 52 55 54 53 52 51 52 53 50 49 47 46 48 50 51 52 51 51 51 51 49 49 50 51 52 52 49 46 45 46 45 43 41 39 37 36 35 35 35 36 36 37 37 38 39 39 39 40 39 39 38 38
38 41 43 42 43 44 44 44 43 43 44 50 54 53 52 52 51 50 50 49 49 49 48 49 50 51 52 51 52 51 49 48 48 49 50 53 53 50 47 47 47 45 44 43 40 38 38 36 35 36 37 38 39 40 41 41 40 40 40 38 37 38 39
34 37 39 40 42 45 46 45 45 44 43 47 53 53 51 52 52 52 51 49 48 48 48 49 49 50 51 51 52 51 49 48 49 49 49 51 53 50 47 47 46 45 45 44 42 40 39 38 37 38 39 41 42 42 42 41 39 40 40 38 38 40 42
32 34 37 39 41 46 48 47 45 45 44 45 50 53 54 53 51 51 52 50 48 48 48 47 47 48 50 52 53 53 51 49 49 49 48 50 52 50 46 45 46 46 46 45 44 43 42 41 41 42 42 42 42 42 42 40 38 39 40 40 41 43 44
29 31 34 37 40 45 51 51 48 47 46 46 47 51 54 55 53 52 52 50 48 48 47 46 46 48 50 52 53 53 50 49 48 47 47 48 49 48 47 47 46 46 47 47 46 46 46 45 45 45 45 44 42 41 41 39 39 41 42 43 44 45 46
26 28 29 32 37 43 50 51 49 48 47 46 47 48 51 54 56 56 54 52 51 49 47 47 48 49 51 52 53 51 49 47 46 45 45 46 48 48 49 48 47 47 48 49 49 49 49 48 48 48 47 45 43 42 41 41 42 43 44 45 46 46 48
25 25 25 27 32 39 46 49 47 46 44 43 44 45 45 48 51 54 55 56 56 55 54 53 52 51 52 52 52 50 48 47 46 45 46 48 49 49 50 49 48 49 51 52 52 52 52 52 51 50 48 46 45 45 45 46 46 46 47 48 49 48 49
24 23 23 24 27 33 41 47 48 47 45 44 44 45 45 45 46 49 52 54 56 56 56 56 54 53 53 53 53 51 48 48 48 48 49 49 49 49 49 49 50 52 54 54 54 55 55 54 53 51 48 47 48 49 49 49 48 48 49 50 52 51 50
24 23 24 24 25 28 35 43 48 50 50 49 48 48 48 48 48 49 51 53 54 54 55 56 55 54 55 55 54 53 51 50 50 50 50 50 49 49 50 51 53 55 57 57 57 57 57 56 54 53 51 50 50 51 51 50 49 50 51 51 53 54 52
27 24 24 25 25 25 29 37 46 52 53 52 52 52 51 50 49 49 50 51 50 49 51 53 54 54 55 55 55 54 52 51 51 51 51 51 50 50 51 53 55 57 59 60 60 59 59 58 56 56 55 53 52 52 52 52 51 51 52 52 54 56 54
34 28 26 25 25 25 26 31 41 51 55 55 54 53 51 49 48 48 49 50 49 49 50 51 51 52 53 54 53 53 51 51 51 52 52 53 53 53 54 55 56 57 59 60 60 60 59 59 58 59 59 57 54 53 53 53 53 53 54 55 55 55 55
41 37 31 27 25 26 27 28 35 45 53 55 55 54 52 50 48 48 50 50 49 50 52 52 50 51 53 53 53 52 52 52 53 53 54 55 56 57 58 58 59 59 59 60 60 60 60 60 60 61 60 58 56 55 55 56 56 56 56 56 56 56 56
45 43 39 33 28 26 28 30 32 38 44 48 50 53 54 53 52 51 52 51 50 49 50 52 51 52 53 53 53 53 53 53 54 55 56 58 59 60 61 61 62 61 61 61 61 60 60 60 62 62 61 59 57 57 57 58 59 58 57 57 57 58 58
47 47 45 41 35 30 28 31 33 37 41 43 43 45 47 49 51 51 49 49 49 48 48 50 52 54 55 55 55 56 56 56 55 56 57 59 60 61 62 62 62 61 61 61 61 61 61 62 63 63 62 60 58 58 59 60 60 59 58 58 59 59 58
50 49 49 47 43 38 33 32 33 37 42 46 47 45 44 44 48 50 47 45 46 47 48 51 55 57 56 56 58 59 60 60 59 58 58 58 58 59 60 61 61 61 61 62 63 63 63 63 62 62 62 61 60 59 60 60 59 58 58 59 60 60 60
52 51 51 51 49 46 41 37 35 37 42 48 51 51 48 46 47 50 48 45 46 48 51 56 59 59 57 58 59 60 61 61 60 59 58 58 59 59 60 61 62 62 63 64 65 65 64 63 62 61 61 60 59 58 59 59 60 61 61 61 61 62 62
54 53 54 54 54 52 49 44 41 40 41 45 50 54 54 51 50 51 50 49 50 51 53 56 59 59 59 60 59 59 60 60 59 59 59 59 60 61 62 63 64 64 64 65 65 64 63 62 60 59 59 58 57 58 59 60 62 63 63 63 64 65 65
53 53 54 56 57 56 55 51 48 46 44 44 46 51 54 54 54 54 54 54 55 56 55 55 55 56 58 59 60 60 60 60 61 61 61 60 61 61 62 62 63 62 61 61 61 61 61 59 58 58 59 59 60 61 62 62 63 64 65 66 67 68 69
51 52 53 56 58 59 59 57 54 52 51 49 48 48 50 52 56 58 58 58 58 58 57 57 57 56 56 56 55 57 59 60 61 62 62 62 63 63 64 65 65 64 62 61 61 62 62 61 62 62 63 64 65 66 67 67 68 68 69 70 71 72 72
51 51 52 54 57 59 61 61 59 57 55 54 53 52 51 52 55 59 61 62 62 61 60 60 62 62 61 58 56 55 56 57 58 59 61 62 64 66 68 69 71 70 69 68 69 68 67 67 67 67 68 69 69 70 71 72 73 73 74 74 74 74 74

ECMWFFLT1_250_spd_078.txt.gz
Wind_Speed
46 42 38 37 40 40 36 38 45 48 46 42 40 37 34 34 32 33 33 29 29 33 34 34 32 30 28 26 26 25 23 23 24 24 25 26 25 24 22 20 17 17 17 16 17 17 16 17 18 19 20 20 19 18 18 17 17 18 19 20 20 19 20
48 45 41 39 42 46 45 44 48 52 50 46 45 42 40 38 36 35 34 32 31 32 33 35 35 33 31 30 30 30 28 27 26 25 26 29 30 27 24 21 20 19 18 18 18 17 17 17 18 19 21 22 22 21 20 18 18 19 20 22 22 22 22
50 47 45 42 42 47 50 49 49 53 54 51 48 46 43 40 39 37 35 34 32 30 30 34 34 33 32 31 30 29 30 30 30 30 27 29 32 30 26 24 22 21 20 20 20 19 19 19 19 20 21 22 23 23 22 20 20 20 21 22 23 24 24
54 51 47 45 44 46 50 52 51 54 57 55 52 50 46 42 41 40 37 35 33 31 30 30 29 28 29 30 29 29 32 34 34 33 28 30 34 32 28 26 25 23 22 22 22 21 21 20 20 21 22 22 23 24 23 23 22 22 23 23 24 25 26
54 54 51 47 46 45 46 50 53 55 57 58 56 54 48 43 42 42 40 36 33 33 33 31 29 29 30 29 28 31 35 35 35 34 31 33 36 33 29 28 27 25 24 24 24 23 23 22 22 23 23 23 23 24 25 25 25 25 24 25 25 25 26
51 55 55 50 48 47 46 47 51 55 57 58 58 57 52 44 40 41 40 38 34 33 34 34 34 33 32 31 30 33 37 37 36 35 35 37 37 32 30 30 28 27 27 27 26 25 25 25 25 24 24 24 24 25 26 27 27 26 26 26 26 27 27
46 52 56 54 51 50 48 46 48 53 56 58 59 58 55 48 44 42 41 40 36 35 35 37 39 36 34 35 35 35 37 37 35 34 36 39 37 35 34 32 30 29 29 29 28 27 27 27 27 26 26 26 26 26 27 28 28 28 27 28 28 28 29
43 48 54 57 55 53 51 48 47 49 53 57 58 57 54 51 49 46 44 42 39 37 37 37 39 38 37 39 39 36 37 37 34 32 35 39 40 39 37 34 31 32 31 30 29 29 30 30 29 28 28 28 27 28 28 29 30 30 30 30 30 31 31
43 44 50 57 59 57 54 51 49 49 49 53 56 57 55 52 51 49 47 45 41 38 38 39 40 40 40 42 40 36 36 37 35 34 36 41 43 40 37 34 32 33 32 31 30 30 32 32 31 30 30 30 30 29 30 31 31 31 32 32 33 34 33
43 43 46 53 59 61 58 55 52 50 49 50 55 58 57 54 52 50 49 48 44 41 40 41 42 42 44 45 43 38 36 36 37 38 39 43 45 42 37 34 33 32 32 32 31 32 34 34 33 32 32 32 32 31 32 32 32 33 33 34 36 36 35
42 42 43 48 55 60 62 59 54 51 50 49 52 57 59 57 54 51 50 49 47 45 44 44 44 42 43 45 44 41 38 36 38 39 41 43 44 42 39 36 33 32 33 33 34 34 33 34 34 34 34 34 33 33 34 33 33 34 35 36 38 38 36
38 40 42 44 49 55 61 62 56 51 48 48 50 56 60 62 60 55 51 49 49 49 48 46 44 43 42 43 42 40 39 37 37 38 40 40 41 41 40 37 35 34 35 36 36 35 34 35 37 37 36 36 35 35 35 35 34 35 36 37 37 37 37
34 38 40 41 44 49 55 60 58 52 47 45 48 55 60 63 65 62 58 53 52 51 50 47 44 44 44 44 42 40 40 40 39 39 41 41 42 43 42 40 39 39 39 38 38 37 37 38 39 40 39 38 37 36 36 36 36 36 37 37 37 37 37
33 37 41 41 42 44 47 52 56 53 48 45 46 52 59 62 63 63 62 60 57 54 51 49 46 45 46 46 45 43 42 43 43 44 44 44 45 46 45 45 45 44 41 38 38 38 38 39 41 42 42 40 38 38 37 37 37 38 38 38 38 37 37
32 36 41 43 44 44 43 45 51 52 49 47 47 49 54 60 61 60 60 61 63 61 56 52 49 48 48 49 49 48 48 47 47 47 46 46 47 46 46 47 48 47 43 39 39 39 40 41 42 43 43 41 40 39 38 37 38 39 39 39 38 38 38
29 33 39 43 46 46 42 41 47 51 50 50 51 48 49 55 60 60 59 59 62 65 63 58 52 50 50 50 51 53 54 54 52 49 48 49 49 47 45 46 48 49 45 41 41 43 45 45 44 45 45 43 41 40 39 38 39 39 40 39 39 39 39
26 29 33 39 44 47 43 40 44 51 54 54 53 47 46 50 56 59 60 59 59 61 64 62 56 52 51 51 52 54 56 57 54 52 52 53 52 50 48 47 48 50 49 46 46 48 48 47 46 47 47 45 44 43 40 39 40 40 40 40 40 40 41
25 25 28 32 38 43 44 42 42 48 51 52 50 44 42 46 53 57 60 61 60 60 63 62 58 55 53 52 53 54 56 56 54 53 53 52 51 52 52 51 50 52 51 51 51 50 48 46 46 48 48 47 47 45 42 41 41 41 41 40 41 42 43
23 23 24 26 29 35 40 42 45 47 48 49 47 42 38 42 49 55 58 61 61 61 62 62 60 58 57 56 56 55 55 54 52 53 53 52 51 51 54 55 54 53 52 53 54 52 49 47 47 48 49 48 48 47 44 42 42 43 42 41 41 43 44
24 22 21 22 24 28 32 37 42 47 48 47 46 42 38 39 45 51 56 59 61 62 62 62 62 62 61 60 59 57 55 53 53 54 56 54 52 51 54 57 57 55 54 55 56 55 53 51 49 48 49 49 49 49 46 44 44 44 43 42 43 44 45
25 23 22 21 22 24 28 32 36 41 45 46 45 42 40 39 42 48 52 56 59 60 60 59 60 62 63 62 61 59 59 58 56 57 59 59 56 54 56 57 57 56 56 55 55 54 55 56 53 49 49 49 49 50 49 46 46 47 47 46 46 46 46
27 25 25 24 23 23 25 29 33 37 41 43 44 43 41 40 42 46 50 55 58 59 59 59 59 60 60 59 59 59 60 60 59 59 60 61 60 59 58 57 56 56 56 55 53 53 56 58 55 50 48 48 49 51 51 50 49 49 50 50 50 49 48
30 28 28 27 26 24 23 26 32 36 39 41 43 44 43 42 43 45 48 53 58 60 60 60 60 60 57 55 57 60 60 60 60 60 60 61 61 60 58 56 56 57 58 59 58 58 60 61 57 51 48 48 48 50 52 52 51 51 52 53 53 51 49
34 31 30 30 28 27 25 24 28 34 39 42 44 45 46 45 45 47 48 51 57 61 60 59 60 59 57 57 60 62 62 62 61 61 62 63 62 61 59 57 57 59 61 62 62 60 60 60 57 52 50 50 50 50 52 52 51 52 52 53 53 53 52
36 34 33 32 30 29 28 27 26 30 36 42 46 48 48 48 47 47 48 51 56 59 58 57 58 57 56 57 60 62 61 60 59 59 61 62 63 62 60 59 58 58 60 61 60 59 58 57 56 54 53 53 52 51 52 52 52 52 53 54 55 55 55
38 37 36 35 34 31 30 29 28 28 31 37 45 50 51 50 49 48 48 51 56 59 58 55 54 55 55 56 58 60 60 59 58 59 59 60 61 60 59 58 56 56 57 59 59 59 58 56 56 56 56 56 54 53 52 52 53 54 54 55 55 56 58
39 40 38 37 37 34 32 31 31 31 30 32 38 47 52 53 51 49 48 50 55 59 59 56 52 51 53 54 54 56 57 57 58 59 59 59 58 57 57 57 56 56 58 59 59 60 60 59 59 59 59 58 56 55 54 54 55 56 57 57 57 58 61
40 42 42 40 39 37 34 32 32 33 33 33 35 40 49 54 53 51 49 49 52 57 59 58 55 53 53 53 53 55 57 58 58 59 60 60 60 59 58 58 57 57 59 60 60 61 61 61 62 62 61 60 59 59 59 58 58 59 60 61 61 62 63
41 42 44 44 42 40 38 35 34 34 35 35 35 37 44 51 53 51 50 48 49 52 54 55 55 55 55 55 55 58 62 63 62 62 62 63 63 62 60 59 59 59 60 61 61 62 62 63 63 63 62 61 61 62 63 62 62 63 63 64 64 64 64
42 42 45 46 45 44 42 39 36 36 36 36 36 37 41 48 52 51 48 48 48 48 48 50 52 54 56 56 56 59 63 65 66 66 65 64 63 62 61 60 60 60 61 61 62 63 63 64 63 63 63 63 63 64 64 64 64 64 65 65 65 66 66
43 42 44 47 48 47 47 45 41 38 38 37 37 36 39 44 51 53 51 50 49 49 49 51 54 56 57 58 58 60 62 64 65 66 65 63 61 59 59 59 60 60 61 62 63 64 64 64 64 64 64 65 65 65 65 65 65 65 66 67 67 67 67
46 43 43 46 50 50 50 50 48 44 40 39 38 38 37 40 48 55 57 54 51 51 52 54 56 57 58 59 60 61 61 60 61 62 62 61 59 58 58 59 60 61 62 63 64 65 65 65 66 66 67 68 68 67 67 67 67 67 67 68 68 68 68
50 46 43 44 49 53 52 52 53 51 47 43 41 40 39 39 44 52 58 57 52 50 51 54 56 56 57 59 60 60 61 62 62 62 61 59 59 60 60 61 61 62 63 64 65 66 67 68 69 70 70 70 70 70 70 69 69 68 68 69 69 70 70
54 51 46 43 46 52 55 53 54 55 54 49 45 43 42 42 43 47 52 54 52 50 52 54 55 55 56 59 58 57 59 63 66 66 64 60 61 63 62 61 62 63 64 65 66 67 68 70 71 71 72 71 71 71 70 70 70 70 70 71 71 71 70
56 54 51 47 45 49 55 56 55 56 57 56 52 47 45 45 46 47 49 51 52 52 53 55 56 57 58 57 56 56 57 59 61 63 64 64 65 67 65 63 64 65 66 66 67 67 69 70 72 72 72 71 71 71 71 70 71 71 72 72 71 69 67
58 56 55 52 48 47 51 56 58 57 58 60 58 54 50 47 48 49 51 52 52 51 54 57 59 59 57 55 56 57 56 55 56 60 62 63 65 67 67 66 67 68 69 69 69 70 71 73 74 73 72 71 71 72 72 72 73 73 73 73 72 70 68
60 59 58 56 53 50 49 53 58 60 60 61 62 61 56 52 50 51 53 55 52 50 52 58 61 61 59 56 55 57 56 55 57 61 63 63 64 65 66 66 67 68 69 70 71 72 72 72 72 72 72 73 74 74 74 74 74 74 74 74 73 72 71

ECMWFFLT1_250_spd_084.txt.gz
Wind_Speed
50 49 48 48 48 48 48 48 49 47 42 45 51 54 57 56 52 51 47 42 46 51 49 47 47 47 46 45 43 42 38 35 32 30 32 33 34 35 34 31 29 28 28 28 28 27 28 28 29 29 28 26 26 24 26 29 29 29 29 29 29 29 28
49 49 47 46 47 47 46 46 47 46 41 40 45 50 55 57 54 52 51 45 44 51 52 49 49 49 47 47 46 44 41 38 35 33 32 34 36 39 38 33 30 30 30 30 29 29 30 31 30 30 28 27 27 26 27 30 30 30 31 31 31 31 31
49 48 47 45 45 46 45 43 43 44 40 36 39 44 49 52 51 50 51 50 46 49 54 52 50 51 49 48 48 47 45 41 37 36 36 36 38 40 39 34 31 31 31 31 31 32 32 32 32 29 29 30 30 28 28 30 30 31 31 32 32 33 33
49 47 47 45 44 44 43 43 42 42 41 37 35 40 45 48 48 44 45 47 46 46 53 55 52 51 51 51 50 49 48 44 40 38 38 38 38 39 39 35 32 32 32 33 33 33 34 34 33 30 31 34 33 29 29 30 30 31 32 32 33 34 35
48 48 47 46 44 43 42 41 42 42 43 42 39 39 42 44 43 41 42 44 44 45 50 54 54 51 50 51 52 52 51 47 43 40 38 37 37 39 40 37 35 34 34 35 34 34 36 36 35 33 33 34 33 31 31 31 30 31 32 33 34 35 36
49 48 47 46 44 42 41 40 41 43 43 45 45 42 41 43 41 41 45 47 47 48 51 53 52 49 48 50 51 51 53 51 47 43 39 37 36 37 38 38 37 36 37 37 36 36 38 38 38 37 35 34 34 33 33 32 31 31 32 33 34 35 36
49 49 48 46 44 42 40 39 40 43 45 47 49 46 42 44 44 43 46 49 49 48 51 54 53 49 47 47 48 48 51 52 51 47 42 38 38 38 38 38 39 39 38 37 37 39 40 40 39 39 38 35 35 35 34 34 33 31 32 34 35 36 37
50 49 48 46 44 42 40 39 39 42 45 48 50 49 46 46 47 46 47 49 49 48 48 54 58 57 50 47 47 47 48 51 51 50 46 42 41 41 40 41 41 41 39 37 38 40 42 42 40 40 41 39 38 39 37 35 34 32 32 34 35 37 37
50 49 48 46 45 43 41 40 41 42 44 48 51 50 50 50 49 50 50 50 51 52 51 53 59 63 59 54 52 50 49 50 50 49 48 46 45 43 42 44 44 42 40 38 38 40 42 43 42 42 44 43 42 42 40 37 36 35 35 34 34 37 37
50 49 48 47 46 44 43 42 42 42 41 45 50 51 52 54 53 52 53 54 55 54 54 55 58 63 65 64 60 54 52 52 50 48 48 47 47 45 43 45 46 43 41 39 38 38 40 43 44 43 43 44 44 43 42 41 40 39 38 36 35 37 38
50 49 48 48 47 45 43 42 42 41 40 41 47 52 53 55 56 56 55 57 58 56 54 56 57 59 65 68 65 59 55 54 53 51 50 48 46 45 44 45 47 45 43 41 41 40 41 41 43 43 42 42 43 43 43 44 44 42 40 39 38 39 40
49 49 49 48 47 45 43 42 42 42 40 38 42 50 55 54 53 56 58 59 59 57 54 56 57 56 58 65 68 65 59 57 55 53 52 50 47 45 44 46 48 48 45 44 43 44 43 42 42 43 42 41 42 44 44 46 47 45 43 42 42 41 42
50 49 50 48 46 44 43 42 42 42 41 38 38 45 54 57 55 56 60 60 59 58 54 55 57 54 53 58 65 67 65 61 56 53 52 51 49 47 46 47 50 49 46 45 45 44 44 43 43 43 44 44 45 46 46 47 49 48 46 45 44 43 44
50 50 50 48 45 44 43 42 42 43 43 40 38 40 49 58 61 60 61 62 61 58 53 52 55 53 52 56 60 63 66 64 59 55 52 51 50 49 48 49 51 51 48 47 46 45 44 44 44 46 47 47 47 48 49 49 50 48 47 46 45 45 47
51 51 50 47 45 43 43 42 42 43 43 41 38 38 43 52 61 64 62 59 60 60 55 52 53 52 50 52 56 61 64 65 63 57 52 51 52 51 50 50 51 52 51 48 47 46 45 43 44 46 49 49 49 49 50 50 48 46 46 46 46 48 49
51 51 50 47 44 43 42 42 42 42 42 40 38 37 39 45 54 63 61 52 50 56 58 54 51 50 47 46 50 57 62 65 65 60 54 52 52 52 52 52 53 53 53 53 51 50 48 47 47 49 51 53 52 49 47 47 47 46 47 48 48 48 49
52 51 50 47 44 42 42 42 41 41 41 39 38 35 37 42 47 55 59 51 41 43 52 55 54 51 48 45 46 51 57 61 62 60 56 53 52 53 53 52 53 54 55 56 55 53 51 51 51 53 55 56 54 49 46 47 48 48 50 51 49 49 49
52 51 50 48 45 42 41 42 41 40 40 39 37 35 35 40 44 49 54 53 45 39 42 51 58 57 53 49 47 49 52 56 58 58 57 55 55 56 55 54 53 54 56 56 55 54 54 54 54 54 55 55 52 49 48 50 50 49 50 53 51 51 51
52 51 51 49 46 43 41 41 40 39 39 38 37 35 34 38 43 47 50 51 51 48 44 48 58 62 56 50 48 49 48 50 54 56 57 58 58 57 56 57 55 54 57 59 57 55 54 55 55 54 53 52 51 50 50 52 50 48 50 53 53 53 53
53 52 51 50 48 45 42 40 39 39 39 38 37 35 34 36 41 47 51 51 51 54 54 54 58 60 56 50 47 46 46 46 46 48 53 60 63 60 57 58 58 56 59 61 60 58 56 55 54 54 54 54 53 53 52 52 52 50 51 53 54 55 55
53 52 52 51 50 48 44 41 39 38 38 38 37 36 34 36 40 45 51 54 53 56 60 61 60 59 56 53 47 42 44 46 44 43 47 56 64 65 62 60 58 58 60 62 60 59 57 55 54 55 57 57 56 55 54 54 54 53 53 53 54 56 57
53 53 53 52 51 50 48 44 40 39 38 37 37 36 35 35 38 44 50 54 55 56 62 66 66 62 58 56 51 44 43 47 45 42 43 48 57 66 68 63 59 59 61 62 60 58 57 55 53 55 57 58 57 54 54 56 55 54 54 53 53 56 60
54 54 54 54 53 52 50 47 43 40 39 38 37 36 35 35 37 42 48 53 55 56 62 67 69 67 62 59 56 50 48 50 48 44 44 46 51 61 66 63 60 59 62 64 63 61 60 57 55 55 56 57 55 53 54 57 57 55 55 53 52 55 59
55 55 55 55 54 54 53 50 47 44 41 39 38 36 35 35 37 41 46 52 55 57 61 66 70 70 67 63 59 54 53 55 54 50 48 47 50 57 60 58 55 55 59 62 64 64 63 61 59 58 59 59 57 56 57 58 57 56 55 54 53 55 58
57 56 56 56 56 56 55 52 51 48 45 41 39 38 36 35 36 40 44 50 55 57 61 65 68 70 70 66 61 57 55 56 57 57 55 52 51 55 60 59 56 56 57 57 59 61 62 61 61 61 62 61 60 59 59 59 59 59 59 57 55 55 56
59 58 57 57 57 58 57 55 53 52 49 46 42 40 38 36 36 38 43 48 53 58 61 65 66 68 70 69 65 61 58 56 56 58 59 57 55 55 59 62 62 62 59 55 54 57 59 61 62 62 61 59 59 60 61 62 63 64 63 62 59 56 56
60 59 59 59 59 59 58 57 55 54 52 50 47 44 41 39 37 38 41 47 52 56 61 65 66 66 68 71 71 68 64 62 61 60 59 59 58 57 59 62 63 63 62 58 56 56 60 63 64 64 63 59 58 59 61 62 62 62 62 61 59 59 59
62 62 61 61 61 61 60 59 57 56 55 53 51 48 45 42 39 38 40 44 51 55 59 63 66 66 66 71 75 75 71 67 64 63 61 60 59 59 60 61 62 62 61 60 60 59 61 63 64 64 65 64 62 61 61 61 59 58 59 59 59 61 61
65 64 64 64 63 63 62 61 60 59 57 56 54 52 50 46 43 40 40 42 48 55 58 60 64 66 65 67 73 79 79 74 68 63 61 61 60 59 60 59 58 58 58 58 59 59 59 60 61 61 63 65 66 65 65 64 62 62 63 64 64 64 63
67 67 67 66 66 65 64 64 63 62 60 59 57 56 53 50 47 43 42 42 45 52 58 60 61 64 64 64 68 75 80 81 75 66 61 60 59 60 62 60 56 57 57 54 53 54 56 58 60 61 62 64 65 66 67 68 68 68 69 69 67 66 65
70 70 69 69 68 68 67 66 65 64 63 61 60 59 56 54 51 47 44 43 45 49 55 60 61 62 63 64 65 69 75 80 80 73 65 61 60 61 63 62 59 58 57 54 52 53 57 59 60 61 61 62 64 66 67 68 70 71 71 69 67 67 66
72 71 71 71 70 70 69 68 67 66 65 64 63 61 60 57 55 52 47 45 45 47 52 57 61 62 62 62 63 66 71 76 80 78 71 64 62 62 62 63 63 61 58 59 60 59 59 60 62 63 63 64 65 65 65 65 65 65 66 66 67 68 68
73 73 73 73 72 72 71 70 69 68 67 66 65 64 63 61 58 56 52 48 46 47 50 53 59 62 63 61 61 64 67 72 77 79 75 69 64 61 60 61 63 63 61 62 64 64 64 64 64 65 66 67 65 63 63 63 61 59 61 63 65 66 65
75 75 75 75 74 74 73 72 72 71 69 68 68 66 65 64 62 59 56 52 49 48 50 52 56 62 64 62 60 62 65 69 73 76 76 73 66 61 60 62 64 63 63 64 65 66 67 66 65 64 63 63 62 61 61 61 60 60 61 62 63 63 62
76 76 76 76 76 75 75 74 74 73 72 71 70 69 68 67 65 62 60 57 52 49 50 52 55 60 64 64 61 60 62 66 70 72 74 73 69 64 64 67 66 64 65 65 66 67 66 62 60 61 59 58 59 59 59 60 61 62 63 63 64 65 65
77 77 77 77 77 77 77 77 76 76 75 74 73 72 71 69 68 66 63 60 56 51 50 52 55 58 63 66 63 61 61 64 68 70 71 72 71 67 66 69 71 70 69 69 68 68 66 63 61 61 60 60 60 59 59 61 62 64 66 68 69 70 72
78 79 79 79 79 79 79 79 78 78 77 76 75 74 73 71 70 69 66 63 60 55 51 52 56 58 61 66 66 63 62 63 65 69 70 71 73 71 69 72 76 76 75 74 72 70 68 67 66 66 66 66 64 63 62 63 65 67 69 71 72 74 76

ECMWFFLT1_250_spd_087.txt.gz
Wind_Speed
55 55 56 57 57 57 57 56 55 54 53 53 53 53 53 53 51 50 49 47 48 49 48 47 48 48 46 42 39 41 42 39 40 43 44 43 41 39 38 37 34 34 35 34 32 32 32 32 33 32 31 30 27 24 22 23 22 21 21 22 23 23 23
55 55 56 57 57 57 57 56 55 54 53 53 52 52 52 51 50 49 49 47 46 48 48 46 48 49 47 44 41 42 44 42 40 42 44 44 43 40 39 37 35 34 34 34 33 33 33 35 36 36 35 32 29 27 25 24 24 23 22 23 24 24 24
56 56 57 57 58 57 57 56 56 55 54 53 52 51 51 51 50 49 48 47 44 45 47 46 47 49 48 47 44 42 44 45 42 41 44 45 45 43 40 38 36 34 34 35 35 36 37 40 40 40 38 34 31 29 28 26 26 25 24 25 25 26 25
57 57 57 58 58 57 57 57 57 56 54 53 52 51 51 50 50 50 48 47 46 46 47 46 46 48 48 48 47 43 44 47 45 42 44 45 47 46 44 40 37 37 37 37 38 39 40 42 43 42 39 37 34 32 30 29 29 28 27 27 27 27 26
57 57 58 58 58 57 57 58 58 56 54 52 52 51 51 50 50 51 49 47 47 48 46 45 46 47 47 47 49 47 45 46 47 45 44 45 46 47 48 45 41 40 40 40 40 39 39 41 43 42 40 38 36 34 33 33 32 31 29 29 28 28 27
57 58 58 58 57 57 57 58 57 56 54 52 52 52 51 49 48 50 50 48 49 49 46 45 45 46 45 46 48 50 47 46 45 45 44 44 45 45 46 47 45 43 42 42 41 40 40 41 43 42 40 38 37 36 36 36 36 34 32 32 31 29 28
57 57 57 56 56 56 57 58 57 55 53 52 52 52 51 49 47 48 50 50 50 50 48 44 43 45 46 46 46 47 48 47 44 42 42 43 44 44 43 44 46 46 45 44 41 39 40 42 43 43 41 39 38 39 39 38 39 38 36 34 33 32 30
57 57 56 55 55 55 56 57 55 54 54 53 53 52 51 49 47 47 49 51 50 50 49 44 40 43 49 49 47 46 47 46 42 39 40 41 42 44 44 43 44 46 47 46 43 40 39 41 43 44 43 41 39 40 40 40 41 42 40 35 34 34 33
58 57 56 55 55 54 56 56 55 54 54 54 53 52 50 49 48 47 48 50 51 50 50 46 40 42 50 51 48 48 48 45 42 40 39 39 39 40 43 46 46 47 47 46 45 42 40 41 43 45 45 43 41 41 41 42 43 43 40 37 36 36 35
60 59 58 56 55 55 55 55 54 54 53 54 53 52 50 49 48 47 47 49 51 51 50 50 45 44 50 52 48 48 50 48 46 45 43 41 41 39 40 45 49 51 50 47 46 45 43 43 44 45 46 45 44 43 42 43 43 41 39 38 37 37 37
58 59 58 56 55 54 54 53 53 53 53 53 53 52 51 49 48 47 47 47 50 52 51 52 51 48 50 54 52 49 52 51 49 49 48 46 45 43 40 41 43 47 50 49 48 48 47 46 46 45 45 45 44 44 43 44 43 40 39 38 38 38 37
55 56 55 55 54 54 53 52 52 52 52 52 53 53 51 50 48 47 46 46 47 50 51 52 54 53 52 54 55 53 53 54 52 51 51 50 50 47 43 41 40 41 44 45 46 47 48 49 48 47 46 45 44 44 43 44 44 42 40 39 40 39 37
52 52 52 53 53 53 52 51 51 50 50 51 52 52 52 50 49 47 46 46 45 46 49 51 53 56 55 54 56 57 56 55 55 54 53 54 54 52 47 44 44 43 41 41 43 45 47 49 50 49 48 48 47 46 44 44 44 43 42 41 40 38 37
50 50 50 50 51 52 51 51 50 49 49 50 51 51 51 50 49 47 45 45 44 43 45 50 52 54 57 56 56 58 57 56 57 56 57 58 58 57 54 51 51 50 45 42 44 46 47 49 51 50 49 50 50 48 46 44 43 43 43 42 41 39 38
49 49 49 49 50 51 51 50 50 49 49 49 50 50 51 50 49 47 45 44 44 42 42 46 50 52 56 58 58 58 56 56 57 56 56 58 58 59 60 59 58 56 51 47 45 47 49 51 51 50 50 51 51 48 44 42 43 43 43 43 43 42 40
49 49 48 49 50 50 51 51 50 49 49 49 49 49 50 50 48 47 45 44 42 42 40 42 47 52 55 57 59 60 57 56 58 57 55 55 54 54 57 60 61 61 59 54 49 47 48 50 51 51 51 51 51 48 42 41 43 43 43 44 44 43 42
49 49 49 49 50 50 51 51 50 50 50 49 49 48 48 49 48 46 45 44 41 40 40 40 44 50 55 56 57 59 59 58 59 58 56 55 55 53 53 55 58 61 63 62 59 55 51 51 51 51 51 52 52 51 47 44 44 45 44 44 45 46 46
49 50 50 50 50 50 51 51 50 50 50 50 49 49 48 47 47 46 45 44 41 39 39 40 41 46 52 56 56 56 57 59 59 58 56 56 57 57 56 55 55 58 61 64 65 64 60 56 54 52 51 51 52 52 51 49 48 48 48 47 49 50 51
51 51 51 50 50 51 51 51 51 51 51 51 50 49 48 47 46 46 44 43 42 40 39 39 40 43 47 53 56 56 57 58 58 57 56 55 56 57 57 57 56 56 59 62 64 65 64 61 58 54 53 51 51 51 52 52 51 52 52 52 54 55 54
52 52 52 51 51 51 52 52 52 52 52 52 51 50 49 47 45 45 44 43 42 40 40 40 39 40 43 48 53 56 57 58 58 58 57 56 56 56 56 56 55 55 57 60 62 62 63 62 59 56 55 54 52 52 52 51 51 53 54 56 57 58 57
53 54 53 53 53 53 53 53 53 53 53 52 52 51 50 48 46 44 43 43 42 40 40 41 40 38 40 45 51 55 55 56 57 58 58 56 54 55 54 53 52 54 57 59 60 60 61 61 59 57 55 54 54 54 54 52 51 51 54 55 57 58 58
54 54 54 54 54 54 54 54 54 54 53 53 53 53 51 50 48 45 44 43 42 41 39 41 42 39 38 42 50 55 54 53 56 59 60 56 54 55 55 52 51 52 55 58 60 61 61 60 58 57 56 54 54 55 55 53 51 51 51 52 54 55 55
55 55 55 55 55 55 56 56 55 55 54 54 54 54 53 52 50 47 45 43 42 42 40 40 41 41 39 40 46 54 56 54 55 60 62 59 56 56 56 54 53 54 55 56 57 59 60 60 58 58 57 56 55 55 55 54 53 52 51 51 52 52 53
56 56 56 57 57 57 57 57 56 56 56 55 55 55 54 54 52 49 47 45 43 42 42 40 40 41 41 40 43 50 56 57 55 58 62 61 59 58 57 55 55 55 57 56 55 55 56 57 58 58 58 57 57 58 56 55 54 53 53 52 52 53 55
57 57 58 58 58 58 58 58 58 57 57 57 56 56 56 55 54 52 50 48 46 44 43 42 41 41 42 42 42 47 54 59 59 58 60 61 62 61 58 57 56 56 57 57 56 56 55 54 55 57 58 58 58 58 58 57 56 55 54 54 53 54 55
57 58 59 59 60 60 60 60 60 59 59 59 58 58 57 57 56 55 53 50 48 46 44 44 43 41 42 43 44 46 51 57 62 63 61 61 63 64 61 58 57 58 59 58 57 56 55 53 52 54 56 58 58 58 58 59 58 58 57 57 57 58 57
58 59 59 60 61 61 62 62 62 62 61 61 61 60 59 59 58 57 56 54 52 49 47 45 45 44 43 43 45 47 50 54 60 66 67 65 65 66 65 61 59 58 60 60 59 58 56 54 52 52 53 55 57 58 59 59 60 59 58 59 60 60 59
60 60 60 60 61 62 63 63 64 64 63 63 63 62 61 61 60 59 58 56 55 53 51 48 47 45 45 45 45 47 50 53 57 64 69 71 69 68 68 66 64 61 60 60 61 60 58 55 53 53 54 54 55 56 58 59 59 58 56 57 59 58 57
61 61 61 62 62 63 63 64 65 65 65 65 64 64 63 63 62 61 60 59 57 56 54 52 50 48 46 46 47 48 50 52 56 60 67 72 74 72 70 69 69 67 63 63 63 60 59 58 56 55 57 57 56 56 57 59 59 57 56 57 58 57 57
62 63 63 63 64 64 65 66 66 66 67 67 66 66 66 65 65 64 63 61 60 59 57 55 53 50 49 48 49 49 50 52 55 58 63 68 74 76 75 71 70 70 67 67 66 63 61 62 61 59 59 60 59 59 59 59 60 59 59 60 61 60 59
65 65 66 66 66 66 66 67 67 67 68 69 69 69 68 68 67 66 65 64 62 61 60 58 56 54 51 50 50 50 51 52 54 57 61 65 70 75 78 75 71 70 69 68 68 66 64 65 66 65 65 64 63 63 63 62 63 63 64 64 64 64 62
69 69 70 70 71 70 70 70 69 69 70 70 71 71 71 70 70 69 67 66 65 63 62 61 59 57 55 53 52 52 52 52 54 56 60 63 66 71 76 78 76 72 70 69 67 65 65 67 68 68 67 66 64 64 65 64 63 65 66 67 67 66 64
73 73 73 73 74 74 74 74 73 73 73 74 73 73 73 72 71 71 70 68 67 66 64 63 62 60 58 56 55 54 53 53 54 56 58 62 65 67 71 76 79 77 74 72 68 64 62 64 66 66 66 64 62 62 63 63 63 63 64 66 67 67 65
75 75 75 75 75 75 75 76 76 77 77 77 76 75 75 74 73 72 72 70 69 68 67 66 64 62 61 59 57 57 56 54 55 56 58 60 64 66 68 72 77 80 79 76 72 66 62 62 63 64 64 63 62 63 63 63 62 62 62 63 64 65 64
78 78 77 77 77 77 77 78 79 79 79 78 78 77 76 76 75 74 73 72 71 70 69 68 67 65 63 62 60 59 58 57 56 57 58 60 62 65 67 68 71 76 80 81 78 73 68 66 64 63 63 63 63 63 63 62 62 62 62 62 63 64 64
81 80 80 80 79 80 80 80 80 80 80 79 78 78 78 77 77 76 75 74 73 72 72 71 69 68 66 65 64 62 60 59 58 58 59 60 62 64 67 68 68 69 74 80 81 79 76 74 69 63 61 62 62 63 64 65 63 62 63 64 65 66 67
83 83 82 82 81 81 80 80 80 80 79 79 78 78 78 78 77 77 76 75 75 74 73 72 72 70 69 67 66 65 63 62 61 60 60 61 62 64 67 69 69 67 68 72 76 76 77 78 76 69 65 64 64 64 65 65 64 64 65 65 66 67 68